GW5298 Weather Reports


time (UTC)temp
C
wind
direction
speed
KPH
gust
KPH
rain 1hr
cm
rain 24hr
cm
rain mn
cm
humidity
%
barometer
mb
20260504130416 7 326 0.0 0.0 0.00 0.00 0.00 78 966.0
20260504110416 9 326 0.0 0.0 0.00 0.00 0.00 70 965.0
20260504100415 11 321 0.0 0.0 0.00 0.00 0.00 60 965.0
20260504081915 13 319 0.0 0.0 0.00 0.00 0.00 55 965.0
20260504081415 13 319 0.0 0.0 0.00 0.00 0.00 55 965.0
20260504080915 12 319 0.0 0.0 0.00 0.00 0.00 54 965.0
20260504080415 12 319 0.0 0.0 0.00 0.00 0.00 59 965.0
20260504050415 16 259 0.0 0.0 0.00 0.00 0.00 46 964.0
20260504045915 17 238 0.0 1.6 0.00 0.00 0.00 44 964.0
20260504045416 16 223 1.6 8.0 0.00 0.00 0.00 41 964.0
20260504044915 16 224 1.6 3.2 0.00 0.00 0.00 44 963.0
20260504044415 16 264 0.0 3.2 0.00 0.00 0.00 44 964.0
20260504043915 17 257 1.6 3.2 0.00 0.00 0.00 43 964.0
20260504043415 17 247 1.6 3.2 0.00 0.00 0.00 43 964.0
20260504042915 16 237 0.0 1.6 0.00 0.00 0.00 43 964.0
20260504042415 16 262 0.0 1.6 0.00 0.00 0.00 45 963.0
20260504041915 16 236 1.6 1.6 0.00 0.00 0.00 47 964.0
20260504041418 17 238 0.0 3.2 0.00 0.00 0.00 43 963.0
20260504040916 17 225 1.6 3.2 0.00 0.00 0.00 42 964.0
20260504040415 17 222 0.0 1.6 0.00 0.00 0.00 43 964.0
20260504035915 18 216 1.6 1.6 0.00 0.00 0.00 42 964.0
20260504035415 17 212 0.0 1.6 0.00 0.00 0.00 42 963.0
20260504034915 17 247 0.0 1.6 0.00 0.00 0.00 41 963.0
20260504034418 18 241 0.0 1.6 0.00 0.00 0.00 40 963.0
20260504033915 18 255 0.0 1.6 0.00 0.00 0.00 39 963.0
20260504032931 18 230 1.6 3.2 0.00 0.00 0.00 41 963.0
20260504032415 18 232 1.6 1.6 0.00 0.00 0.00 40 963.0
20260504031915 19 296 0.0 3.2 0.00 0.00 0.00 38 963.0
20260504031415 19 241 1.6 1.6 0.00 0.00 0.00 38 963.0
20260504030915 19 243 0.0 1.6 0.00 0.00 0.00 40 963.0
20260504030416 20 241 0.0 1.6 0.00 0.00 0.00 36 963.0
20260504025915 19 243 0.0 1.6 0.00 0.00 0.00 37 963.0
20260504025415 20 225 1.6 1.6 0.00 0.00 0.00 38 963.0
20260504024916 20 245 1.6 1.6 0.00 0.00 0.00 36 963.0
20260504024415 20 254 0.0 0.0 0.00 0.00 0.00 37 963.0
20260504023915 21 265 1.6 3.2 0.00 0.00 0.00 36 963.0
20260504023415 21 281 1.6 4.8 0.00 0.00 0.00 36 963.0
20260504022915 22 262 0.0 1.6 0.00 0.00 0.00 33 963.0
20260504022415 22 273 4.8 9.7 0.00 0.00 0.00 27 963.0
20260504021915 22 215 1.6 3.2 0.00 0.00 0.00 29 963.0
20260504021415 23 225 1.6 1.6 0.00 0.00 0.00 27 963.0
20260504020915 23 219 4.8 4.8 0.00 0.00 0.00 24 963.0
20260504020416 23 234 3.2 14.5 0.00 0.00 0.00 23 963.0
20260504015915 23 223 1.6 3.2 0.00 0.00 0.00 26 962.0
20260504015415 23 222 1.6 14.5 0.00 0.00 0.00 30 963.0
20260504014915 23 211 1.6 8.0 0.00 0.00 0.00 27 963.0
20260504014415 23 237 1.6 4.8 0.00 0.00 0.00 29 963.0
20260504013915 22 223 1.6 4.8 0.00 0.00 0.00 30 963.0
20260504013415 23 221 1.6 3.2 0.00 0.00 0.00 31 963.0
20260504012915 23 227 0.0 3.2 0.00 0.00 0.00 30 963.0
20260504012415 24 226 3.2 4.8 0.00 0.00 0.00 30 963.0
20260504011915 24 204 1.6 4.8 0.00 0.00 0.00 33 963.0
20260504011416 24 200 3.2 4.8 0.00 0.00 0.00 31 963.0
20260504010916 24 222 1.6 9.7 0.00 0.00 0.00 30 963.0
20260504010415 24 231 1.6 3.2 0.00 0.00 0.00 31 963.0
20260504005915 25 217 1.6 9.7 0.00 0.00 0.00 26 963.0
20260504005415 25 220 1.6 8.0 0.00 0.00 0.00 27 963.0
20260504004916 25 224 1.6 1.6 0.00 0.00 0.00 28 963.0
20260504004415 26 281 1.6 3.2 0.00 0.00 0.00 29 963.0
20260504003915 25 237 1.6 11.3 0.00 0.00 0.00 26 963.0
20260504003415 26 290 1.6 3.2 0.00 0.00 0.00 29 963.0
20260504002916 26 284 0.0 4.8 0.00 0.00 0.00 29 963.0
20260504002415 26 245 1.6 3.2 0.00 0.00 0.00 30 963.0
20260504001915 26 237 4.8 8.0 0.00 0.00 0.00 27 963.0
20260504001415 26 210 1.6 4.8 0.00 0.00 0.00 26 963.0
20260504000915 26 252 0.0 3.2 0.00 0.00 0.00 27 963.0
20260504000416 27 199 3.2 8.0 0.00 0.00 0.00 24 963.0
20260503235915 27 217 1.6 4.8 0.00 0.00 0.00 27 963.0
20260503235415 27 198 4.8 8.0 0.00 0.00 0.00 25 964.0
20260503234915 27 228 1.6 4.8 0.00 0.00 0.00 25 964.0
20260503234415 28 195 3.2 8.0 0.00 0.00 0.00 24 964.0
20260503233915 28 211 0.0 8.0 0.00 0.00 0.00 25 964.0
20260503233415 28 225 1.6 1.6 0.00 0.00 0.00 24 964.0
20260503232915 28 199 3.2 8.0 0.00 0.00 0.00 24 964.0
20260503232416 28 260 1.6 9.7 0.00 0.00 0.00 24 964.0
20260503231915 28 287 3.2 8.0 0.00 0.00 0.00 24 964.0
20260503231415 28 199 1.6 3.2 0.00 0.00 0.00 23 963.0
20260503230915 28 212 1.6 4.8 0.00 0.00 0.00 25 964.0
20260503230415 28 209 4.8 8.0 0.00 0.00 0.00 23 964.0
20260503225915 27 234 0.0 3.2 0.00 0.00 0.00 26 964.0
20260503225416 27 267 1.6 8.0 0.00 0.00 0.00 25 964.0
20260503224915 27 241 0.0 4.8 0.00 0.00 0.00 26 964.0
20260503224416 27 201 1.6 8.0 0.00 0.00 0.00 25 964.0
20260503223916 27 225 0.0 8.0 0.00 0.00 0.00 26 964.0
20260503223415 27 242 0.0 3.2 0.00 0.00 0.00 26 964.0
20260503222915 27 230 1.6 3.2 0.00 0.00 0.00 24 964.0
20260503222415 27 236 0.0 4.8 0.00 0.00 0.00 26 965.0
20260503221915 27 222 0.0 1.6 0.00 0.00 0.00 25 964.0
20260503221415 27 289 3.2 12.9 0.00 0.00 0.00 26 964.0
20260503220915 27 275 1.6 3.2 0.00 0.00 0.00 26 964.0
20260503220416 27 271 0.0 8.0 0.00 0.00 0.00 26 964.0
20260503215915 27 244 1.6 3.2 0.00 0.00 0.00 27 965.0
20260503215415 27 206 4.8 4.8 0.00 0.00 0.00 27 965.0
20260503214915 27 188 1.6 4.8 0.00 0.00 0.00 26 965.0
20260503214415 27 188 4.8 4.8 0.00 0.00 0.00 26 965.0
20260503213915 27 206 3.2 3.2 0.00 0.00 0.00 27 965.0
20260503213415 27 245 1.6 9.7 0.00 0.00 0.00 28 965.0
20260503212915 27 264 3.2 4.8 0.00 0.00 0.00 27 965.0
20260503212416 26 202 1.6 3.2 0.00 0.00 0.00 27 965.0
20260503211916 27 183 3.2 12.9 0.00 0.00 0.00 27 965.0
20260503211415 27 300 3.2 4.8 0.00 0.00 0.00 27 965.0
20260503210915 27 281 4.8 8.0 0.00 0.00 0.00 27 965.0
20260503210415 27 156 1.6 8.0 0.00 0.00 0.00 30 965.0
20260503205915 26 285 0.0 8.0 0.00 0.00 0.00 28 965.0
20260503205415 26 299 0.0 4.8 0.00 0.00 0.00 29 965.0
20260503204917 27 222 0.0 0.0 0.00 0.00 0.00 28 965.0
20260503204415 26 183 0.0 0.0 0.00 0.00 0.00 27 965.0
20260503203915 26 230 0.0 0.0 0.00 0.00 0.00 27 966.0
20260503203415 25 245 0.0 0.0 0.00 0.00 0.00 30 965.0
20260503202915 22 241 0.0 1.6 0.00 0.00 0.00 32 965.0
20260503202418 22 114 0.0 0.0 0.00 0.00 0.00 41 966.0
20260503201916 20 64 0.0 0.0 0.00 0.00 0.00 38 966.0
20260503201416 18 93 0.0 0.0 0.00 0.00 0.00 39 966.0
20260503200915 18 66 0.0 0.0 0.00 0.00 0.00 51 966.0
20260503200415 17 85 0.0 0.0 0.00 0.00 0.00 51 967.0
20260503195915 18 94 0.0 0.0 0.00 0.00 0.00 47 966.0
20260503195415 17 90 0.0 0.0 0.00 0.00 0.00 47 967.0
20260503194916 17 91 0.0 0.0 0.00 0.00 0.00 54 967.0
20260503194416 17 95 0.0 0.0 0.00 0.00 0.00 59 967.0
20260503193916 16 89 0.0 0.0 0.00 0.00 0.00 58 967.0
20260503193416 17 97 0.0 0.0 0.00 0.00 0.00 60 966.0
20260503192916 18 90 0.0 0.0 0.00 0.00 0.00 47 967.0
20260503192416 17 85 0.0 0.0 0.00 0.00 0.00 48 967.0
20260503191916 17 90 0.0 0.0 0.00 0.00 0.00 51 967.0
20260503191416 17 90 0.0 0.0 0.00 0.00 0.00 48 967.0
20260503190915 16 92 0.0 0.0 0.00 0.00 0.00 54 967.0
20260503190415 16 89 0.0 0.0 0.00 0.00 0.00 56 968.0
20260503185916 16 91 0.0 0.0 0.00 0.00 0.00 57 967.0
20260503185415 16 89 0.0 0.0 0.00 0.00 0.00 54 968.0
20260503184915 17 89 0.0 0.0 0.00 0.00 0.00 53 968.0
20260503184415 17 86 0.0 0.0 0.00 0.00 0.00 51 968.0
20260503183915 17 83 0.0 0.0 0.00 0.00 0.00 53 968.0
20260503183415 17 93 0.0 0.0 0.00 0.00 0.00 53 968.0
20260503182915 16 81 0.0 0.0 0.00 0.00 0.00 55 968.0
20260503182416 16 90 0.0 0.0 0.00 0.00 0.00 51 968.0
20260503181915 15 90 0.0 0.0 0.00 0.00 0.00 55 969.0
20260503181416 15 92 0.0 0.0 0.00 0.00 0.00 61 968.0
20260503180915 15 90 0.0 0.0 0.00 0.00 0.00 60 968.0
20260503180415 14 80 0.0 0.0 0.00 0.00 0.00 63 969.0
20260503175918 14 96 0.0 0.0 0.00 0.00 0.00 63 969.0
20260503175415 14 89 0.0 0.0 0.00 0.00 0.00 62 969.0
20260503174916 15 91 0.0 0.0 0.00 0.00 0.00 60 969.0
20260503174415 15 90 0.0 0.0 0.00 0.00 0.00 59 969.0
20260503173915 14 86 0.0 0.0 0.00 0.00 0.00 66 969.0
20260503173417 14 89 0.0 0.0 0.00 0.00 0.00 66 969.0
20260503172915 14 90 0.0 0.0 0.00 0.00 0.00 68 969.0
20260503172416 13 92 0.0 0.0 0.00 0.00 0.00 63 969.0
20260503171915 13 93 0.0 0.0 0.00 0.00 0.00 64 969.0
20260503171415 13 98 0.0 0.0 0.00 0.00 0.00 64 970.0
20260503170915 13 94 0.0 0.0 0.00 0.00 0.00 65 970.0
20260503170415 13 92 0.0 0.0 0.00 0.00 0.00 63 970.0
20260503150916 13 56 0.0 0.0 0.00 0.00 0.00 61 971.0
20260503150415 13 50 0.0 0.0 0.00 0.00 0.00 57 971.0